Regional Weather Roundup
Issued by NWS

Home | Current Version | Previous Version | Graphics & Text | Print | Product List | Glossary On
Versions: 1 2 3 4 5 6 7 8 9 10 11 12 13 14 15 16 17 18 19 20 21 22 23 24 25 26 27 28 29 30 31 32 33 34 35 36 37 38 39 40 41 42 43 44 45 46 47 48 49 50
260
ASUS43 KFSD 241210
RWRSD

WEATHER ROUNDUP FOR SOUTH DAKOTA
NATIONAL WEATHER SERVICE SIOUX FALLS SD
700 AM CDT FRI MAR 24 2017

NOTE: "FAIR" INDICATES FEW OR NO CLOUDS BELOW 12,000 FEET WITH NO
SIGNIFICANT WEATHER AND/OR OBSTRUCTIONS TO VISIBILITY.


SDZ001>005-009-010-012>017-241300-
NORTHWEST AND NORTH CENTRAL SOUTH DAKOTA

CITY           SKY/WX    TMP DP  RH WIND       PRES   REMARKS
BUFFALO          N/A     37  33  85 NW8       29.97R
FAITH            N/A     37  37 100 W8        30.01R
MOBRIDGE       PTCLDY    36  31  82 NE9       30.00R
$$

SDZ012>016-024>037-041>051-057-063-072>074-241300-
SOUTHWEST AND SOUTH CENTRAL SOUTH DAKOTA

CITY           SKY/WX    TMP DP  RH WIND       PRES   REMARKS
RAPID CTY ARPT CLOUDY    42  38  85 NW6       30.04R
PIERRE         CLOUDY    39  35  86 N9        30.00R
CUSTER         CLOUDY    37  31  78 VRB3      30.04R
ELLSWORTH AFB  CLOUDY    42  40  93 CALM      30.03R
PHILIP         CLOUDY    34  33  96 W6        30.03R WCI  29
PINE RIDGE     MOCLDY    38  37  97 N7        30.02R
SPEARFISH      FAIR      37  36  93 W6        30.06R
WINNER         CLOUDY    42  38  85 N15       29.96R
$$

SDZ004>011-016>023-039-040-241300-
NORTHEAST SOUTH DAKOTA

CITY           SKY/WX    TMP DP  RH WIND       PRES   REMARKS
ABERDEEN       CLOUDY    35  31  85 N14       30.02R WCI  26
WATERTOWN      CLOUDY    33  33 100 N12       29.94R FOG     WCI  24
BROOKINGS      CLOUDY    35  33  92 N13       29.90R FOG     WCI  26
SISSETON         N/A     34  34 100 N13       29.99R WCI  25
$$

SDZ017-020-022-023-036>040-048>070-241300-
SOUTHEAST SOUTH DAKOTA

CITY           SKY/WX    TMP DP  RH WIND       PRES   REMARKS
SIOUX FALLS    CLOUDY    39  36  89 N13       29.87F
HURON          CLOUDY    36  36 100 N14       29.96R
CHAMBERLAIN    CLOUDY    41  38  88 NW14      29.96R
MITCHELL       CLOUDY    39  37  92 N15       29.94R
YANKTON        CLOUDY    39  37  93 N18G25    29.85R
$$

ABBREVIATIONS USED IN REMARKS
   TC - TEMPERATURE IN CELSIUS
  WCI - WIND CHILL INDEX
   HX - HEAT INDEX
  VSB - VISIBILITY





USA.gov is the U.S. government's official web portal to all federal, state and local government web resources and services.